PBO Station Position Time Series. Reference Frame : NAM14
Format Version,1.1.1
4-character ID,P392
Station name,WrightsPt_OR2007
Begin Date, 2007-07-12
End Date, 2023-06-26
Release Date, 2023-06-27
Reference position, 43.4467587789 North Latitude, -119.0010011512 East Longitude, 1315.53049 meters elevation,
Date, North (mm), East (mm), Vertical (mm), North Std. Deviation (mm), East Std. Deviation (mm),              Vertical Std. Deviation (mm), Quality,
2007-07-12,0.00, 0.00, 0.00, 2.11, 1.57, 7.03, repro,
2007-07-13,1.02, -0.73, 0.73, 2.13, 1.62, 7.22, repro,
2007-07-14,-1.17, -1.39, 4.13, 2.11, 1.56, 7.01, repro,
2007-07-15,-0.14, 0.13, -2.07, 2.11, 1.58, 7.07, repro,
2007-07-16,-0.42, -0.99, 6.07, 2.11, 1.57, 7.00, repro,
2007-07-17,-0.70, -1.50, 6.31, 2.11, 1.56, 7.02, repro,
2007-07-18,0.40, -1.65, 3.14, 2.10, 1.56, 7.01, repro,
2007-07-19,1.04, -0.30, 1.26, 2.10, 1.56, 6.99, repro,
2007-07-20,0.00, -0.76, 6.86, 2.15, 1.62, 7.22, repro,
2007-07-21,0.07, -2.06, 8.87, 2.15, 1.62, 7.24, repro,
2007-07-22,0.51, -1.93, 8.21, 2.13, 1.61, 7.16, repro,
2007-07-23,-1.11, -1.47, 7.90, 2.14, 1.61, 7.16, repro,
2007-07-24,2.14, -2.28, 4.17, 2.17, 1.62, 7.29, repro,
2007-07-25,-0.40, -0.96, 8.97, 2.16, 1.63, 7.27, repro,
2007-07-26,0.96, -1.71, 1.76, 2.12, 1.57, 7.08, repro,
2007-07-27,-0.23, -2.31, 4.01, 2.14, 1.62, 7.21, repro,
2007-07-28,0.26, -1.54, 0.94, 2.12, 1.61, 7.15, repro,
2007-07-29,0.88, -2.51, 9.77, 2.13, 1.62, 7.17, repro,
2007-07-30,-0.67, 0.42, 9.02, 2.10, 1.56, 7.01, repro,
2007-07-31,-0.34, -1.41, 4.43, 2.10, 1.57, 7.05, repro,
2007-08-01,-0.75, -1.63, 9.21, 2.14, 1.62, 7.24, repro,
2007-08-02,-0.13, -2.31, 10.48, 2.10, 1.55, 7.01, repro,
2007-08-03,0.84, -1.72, 5.65, 2.11, 1.57, 7.05, repro,
2007-08-04,0.27, -1.13, 11.15, 2.12, 1.56, 7.06, repro,
2007-08-05,-0.26, -1.46, 12.64, 2.10, 1.56, 6.97, repro,
2007-08-06,0.91, -1.80, 17.27, 2.17, 1.67, 7.38, repro,
2007-08-07,-0.51, -0.42, 9.78, 2.14, 1.60, 7.19, repro,
2007-08-08,0.23, -1.73, 7.61, 2.09, 1.55, 6.98, repro,
2007-08-09,-0.51, -1.01, 6.86, 2.09, 1.55, 6.93, repro,
2007-08-10,0.07, -0.09, 9.20, 2.16, 1.57, 7.15, repro,
2007-08-11,-0.64, -1.90, 11.20, 2.09, 1.55, 6.94, repro,
2007-08-12,-0.07, -1.58, 10.08, 2.10, 1.55, 6.98, repro,
2007-08-13,1.19, -2.21, 5.38, 2.09, 1.55, 6.98, repro,
2007-08-14,-0.06, -1.34, 3.88, 2.23, 1.67, 7.45, repro,
2007-08-15,-0.49, -0.78, 8.86, 2.23, 1.66, 7.36, repro,
2007-08-16,-0.63, -1.61, 8.85, 2.23, 1.68, 7.50, repro,
2007-08-17,0.43, -2.15, 5.37, 2.23, 1.67, 7.45, repro,
2007-08-18,0.63, -1.53, 10.97, 2.24, 1.67, 7.61, repro,
2007-08-19,-0.51, -1.20, 17.70, 2.24, 1.66, 7.57, repro,
2007-08-20,-0.09, -0.66, 5.31, 2.20, 1.61, 7.27, repro,
2007-08-21,-2.04, -2.28, 9.07, 2.18, 1.60, 7.21, repro,
2007-08-22,0.11, -2.79, 7.57, 2.19, 1.60, 7.22, repro,
2007-08-23,0.67, -2.05, 12.34, 2.15, 1.56, 7.09, repro,
2007-08-24,0.99, -1.99, 9.74, 2.27, 1.65, 7.46, repro,
2007-08-25,1.19, -1.42, -1.00, 2.20, 1.64, 7.34, repro,
2007-08-26,-0.62, -1.84, 9.24, 2.25, 1.68, 7.49, repro,
2007-08-27,-0.60, -2.47, 4.78, 2.25, 1.68, 7.47, repro,
2007-08-28,0.01, -1.88, 2.84, 2.20, 1.63, 7.36, repro,
2007-08-29,1.22, -2.08, 3.34, 2.20, 1.64, 7.35, repro,
2007-08-30,-0.64, -0.65, 12.92, 2.21, 1.65, 7.46, repro,
2007-08-31,-1.12, -3.41, 6.75, 2.36, 1.79, 7.97, repro,
2007-09-01,-1.90, -1.66, 6.83, 2.26, 1.69, 7.48, repro,
2007-09-02,0.37, -2.48, 10.48, 2.21, 1.63, 7.29, repro,
2007-09-03,-0.78, -2.22, 9.17, 2.20, 1.64, 7.34, repro,
2007-09-04,-1.08, -1.58, 2.81, 2.28, 1.75, 7.87, repro,
2007-09-05,0.81, -3.15, 12.95, 2.22, 1.64, 7.37, repro,
2007-09-06,-0.13, -2.80, 10.34, 2.20, 1.62, 7.25, repro,
2007-09-07,-0.42, -3.01, 10.95, 2.20, 1.62, 7.25, repro,
2007-09-08,0.11, -2.34, 5.31, 2.28, 1.73, 7.70, repro,
2007-09-09,0.60, -1.97, 6.88, 2.27, 1.73, 7.71, repro,
2007-09-10,0.00, -1.29, 3.56, 2.24, 1.68, 7.51, repro,
2007-09-11,-0.01, -2.60, 6.48, 2.21, 1.64, 7.32, repro,
2007-09-12,0.09, -2.82, 5.15, 2.21, 1.62, 7.28, repro,
2007-09-13,0.66, -2.60, 6.40, 2.25, 1.68, 7.50, repro,
2007-09-14,0.73, -3.16, 9.26, 2.24, 1.69, 7.55, repro,
2007-09-15,0.01, -2.55, 10.80, 2.28, 1.66, 7.59, repro,
2007-09-16,0.68, -3.14, 10.58, 2.22, 1.64, 7.29, repro,
2007-09-17,-0.97, -3.74, 8.04, 2.31, 1.71, 7.67, repro,
2007-09-18,-0.76, -2.45, 8.91, 2.16, 1.63, 7.24, repro,
2007-09-19,0.36, -1.97, 8.81, 2.12, 1.57, 7.04, repro,
2007-09-20,-0.03, -2.86, 9.06, 2.13, 1.57, 7.06, repro,
2007-09-21,0.35, -1.97, 14.54, 2.20, 1.62, 7.32, repro,
2007-09-22,-0.31, -3.35, 11.69, 2.21, 1.60, 7.23, repro,
2007-09-23,-0.24, -2.37, 7.59, 2.26, 1.66, 7.40, repro,
2007-09-24,-1.08, -0.89, 3.97, 2.27, 1.63, 7.42, repro,
2007-09-25,-0.32, -1.38, 1.55, 2.21, 1.61, 7.38, repro,
2007-09-26,-0.48, -2.35, 12.25, 2.25, 1.59, 7.26, repro,
2007-09-27,-0.77, -1.42, 9.42, 2.20, 1.60, 7.29, repro,
2007-09-28,-0.88, -3.20, 18.43, 2.23, 1.69, 7.42, repro,
2007-09-29,-0.23, -2.43, 6.75, 2.20, 1.65, 7.33, repro,
2007-09-30,-0.66, -2.08, 7.11, 2.22, 1.67, 7.43, repro,
2007-10-01,-0.05, -2.10, 8.78, 2.21, 1.67, 7.40, repro,
2007-10-02,-0.30, -1.54, 9.60, 2.26, 1.71, 7.64, repro,
2007-10-03,0.57, -2.08, 12.60, 2.18, 1.63, 7.34, repro,
2007-10-04,0.99, -1.46, 8.98, 2.26, 1.64, 7.53, repro,
2007-10-05,1.00, -1.84, 12.98, 2.26, 1.71, 7.68, repro,
2007-10-06,0.71, -1.53, 8.07, 2.21, 1.66, 7.36, repro,
2007-10-07,0.48, -1.26, 5.12, 2.27, 1.69, 7.56, repro,
2007-10-08,-0.75, -1.35, 4.96, 2.47, 1.77, 8.14, repro,
2007-10-09,-0.58, -1.14, 8.17, 2.43, 1.87, 8.28, repro,
2007-10-10,-0.15, -1.41, 3.95, 2.38, 1.70, 7.78, repro,
2007-10-11,0.14, -1.82, 3.52, 2.21, 1.66, 7.38, repro,
2007-10-12,-0.07, -1.43, 10.36, 2.25, 1.70, 7.55, repro,
2007-10-13,-0.55, -2.05, 9.49, 2.12, 1.60, 7.09, repro,
2007-10-14,-0.69, -1.71, 6.98, 2.13, 1.59, 7.08, repro,
2007-10-15,-1.24, -0.87, 12.98, 2.14, 1.60, 7.19, repro,
2007-10-16,-0.63, -1.83, 11.54, 2.16, 1.61, 7.22, repro,
2007-10-17,-0.17, -1.08, 11.36, 2.13, 1.59, 7.12, repro,
2007-10-18,0.99, -0.54, 13.43, 2.13, 1.61, 7.16, repro,
2007-10-19,-1.45, -2.51, 10.74, 2.14, 1.60, 7.13, repro,
2007-10-20,-1.17, -1.40, 14.63, 2.16, 1.63, 7.29, repro,
2007-10-21,-0.29, -1.58, 2.74, 2.16, 1.60, 7.20, repro,
2007-10-22,-0.69, -0.91, -3.12, 2.14, 1.60, 7.19, repro,
2007-10-23,-0.86, -0.15, 1.34, 2.20, 1.66, 7.34, repro,
2007-10-24,-0.63, -0.89, 3.81, 2.22, 1.69, 7.48, repro,
2007-10-25,-0.88, -1.16, 2.99, 2.15, 1.60, 7.17, repro,
2007-10-26,-0.67, -0.85, 2.54, 2.17, 1.64, 7.29, repro,
2007-10-27,-0.32, -0.72, 0.37, 2.14, 1.59, 7.11, repro,
2007-10-28,-0.58, -0.66, -0.59, 2.14, 1.60, 7.18, repro,
2007-10-29,-0.36, -0.83, 6.01, 2.13, 1.60, 7.16, repro,
2007-10-30,-1.04, -0.95, -0.24, 2.12, 1.59, 7.10, repro,
2007-10-31,-1.12, -0.58, 1.04, 2.15, 1.60, 7.16, repro,
2007-11-01,-0.47, -0.86, 3.50, 2.12, 1.57, 6.98, repro,
2007-11-02,-0.22, -1.10, -0.68, 2.12, 1.58, 7.03, repro,
2007-11-03,-0.99, -1.69, -2.06, 2.13, 1.59, 7.10, repro,
2007-11-04,-0.07, -1.56, 3.59, 2.08, 1.56, 6.87, repro,
2007-11-05,-0.57, -1.24, 0.01, 2.10, 1.57, 6.94, repro,
2007-11-06,-0.93, -1.25, -3.72, 2.18, 1.65, 7.35, repro,
2007-11-07,-0.35, -1.27, -3.51, 2.11, 1.58, 6.99, repro,
2007-11-08,-0.50, -1.50, 2.33, 2.15, 1.62, 7.13, repro,
2007-11-09,-1.27, -1.84, 4.96, 2.14, 1.60, 7.06, repro,
2007-11-10,0.03, -2.76, 6.57, 2.10, 1.56, 6.92, repro,
2007-11-11,-1.03, -1.80, 3.40, 2.10, 1.56, 6.91, repro,
2007-11-12,-1.32, -1.57, 3.89, 2.11, 1.56, 6.93, repro,
2007-11-13,-0.20, -2.69, -2.58, 2.11, 1.58, 7.03, repro,
2007-11-14,-0.41, -1.06, 0.99, 2.13, 1.59, 7.07, repro,
2007-11-15,0.59, -2.16, 3.97, 2.15, 1.59, 7.12, repro,
2007-11-16,-0.10, -1.63, 6.45, 2.13, 1.57, 6.98, repro,
2007-11-17,-0.20, -1.91, 2.03, 2.11, 1.56, 6.92, repro,
2007-11-18,-1.47, -2.58, 3.32, 2.09, 1.57, 6.91, repro,
2007-11-19,-1.13, -1.64, 0.76, 2.10, 1.58, 6.98, repro,
2007-11-20,0.07, -1.69, -1.21, 2.17, 1.67, 7.26, repro,
2007-11-21,-0.21, -1.65, -1.67, 2.18, 1.66, 7.28, repro,
2007-11-22,0.39, -1.77, -7.04, 2.16, 1.62, 7.04, repro,
2007-11-23,0.76, -1.39, 0.01, 2.21, 1.70, 7.39, repro,
2007-11-24,0.28, -1.72, 1.05, 2.17, 1.65, 7.13, repro,
2007-11-25,-0.51, -1.60, 3.70, 2.20, 1.68, 7.31, repro,
2007-11-26,-1.42, -1.45, -7.61, 2.31, 1.73, 7.69, repro,
2007-11-27,-0.32, -1.02, 1.26, 2.19, 1.68, 7.27, repro,
2007-11-28,-0.06, -2.03, -7.95, 2.18, 1.66, 7.17, repro,
2007-11-29,0.06, -2.10, -5.08, 2.19, 1.65, 7.30, repro,
2007-11-30,-0.53, -1.72, -0.42, 2.21, 1.70, 7.31, repro,
2007-12-01,-0.69, -1.50, 5.04, 2.27, 1.77, 7.72, repro,
2007-12-02,-1.09, -0.95, -0.92, 2.26, 1.75, 7.74, repro,
2007-12-03,-2.05, -0.56, -1.99, 2.28, 1.71, 7.68, repro,
2007-12-04,0.80, -3.57, -3.04, 2.32, 1.82, 8.03, repro,
2007-12-05,-0.24, -1.83, 4.18, 2.30, 1.80, 7.96, repro,
2007-12-06,-0.21, -0.72, 2.94, 2.35, 1.82, 8.11, repro,
2007-12-07,1.47, -1.92, 0.04, 2.45, 1.96, 8.42, repro,
2007-12-08,0.05, -1.84, 5.57, 2.35, 1.78, 7.78, repro,
2007-12-09,0.75, -2.05, 0.41, 2.63, 2.39, 9.66, repro,
2007-12-10,-0.09, -2.01, -3.16, 2.32, 1.79, 7.74, repro,
2007-12-11,-0.19, -1.39, -0.89, 2.40, 1.85, 8.12, repro,
2007-12-12,-0.15, -2.32, -6.84, 2.32, 1.74, 7.69, repro,
2007-12-13,0.73, -1.66, -4.38, 2.32, 1.79, 7.73, repro,
2007-12-14,-0.57, -1.52, -0.54, 2.17, 1.60, 7.12, repro,
2007-12-15,-1.55, -1.33, 7.45, 2.15, 1.59, 7.03, repro,
2007-12-16,-0.39, -2.06, -0.59, 2.23, 1.64, 7.24, repro,
2007-12-17,-1.21, -1.96, 6.60, 2.23, 1.66, 7.31, repro,
2007-12-18,0.65, -1.22, 5.10, 2.19, 1.64, 7.27, repro,
2007-12-19,1.31, -0.08, 8.92, 2.26, 1.72, 7.75, repro,
2007-12-20,-2.14, -2.90, 9.34, 2.18, 1.63, 7.20, repro,
2007-12-21,-1.04, -1.90, 7.57, 2.38, 1.82, 8.14, repro,
2007-12-22,-0.98, -3.01, -0.66, 2.29, 1.71, 7.71, repro,
2007-12-23,-0.76, -2.49, -1.55, 2.23, 1.67, 7.39, repro,
2007-12-24,-0.92, -2.17, -1.22, 2.18, 1.62, 7.20, repro,
2007-12-25,-0.43, -2.10, -3.07, 2.21, 1.67, 7.27, repro,
2007-12-26,-0.89, -1.96, 5.37, 2.17, 1.61, 7.14, repro,
2007-12-27,-1.46, -1.78, 6.26, 2.23, 1.65, 7.37, repro,
2007-12-28,-1.29, -1.18, 6.67, 2.26, 1.66, 7.50, repro,
2007-12-29,-0.64, -2.04, 3.17, 2.19, 1.60, 7.19, repro,
2007-12-30,-1.99, -1.03, 3.58, 2.22, 1.64, 7.31, repro,
2007-12-31,-1.17, -1.68, -3.96, 2.15, 1.56, 7.01, repro,
2008-01-01,-1.33, -1.72, -8.31, 2.17, 1.58, 7.09, repro,
2008-01-02,-1.48, -1.65, -4.39, 2.19, 1.59, 7.20, repro,
2008-01-03,-2.66, -0.99, 6.33, 2.15, 1.55, 7.06, repro,
2008-01-04,-1.09, -0.66, 6.91, 2.12, 1.54, 6.91, repro,
2008-01-05,-3.24, -1.59, 10.76, 2.12, 1.54, 6.96, repro,
2008-01-06,-1.44, -1.65, 9.39, 2.12, 1.54, 6.92, repro,
2008-01-07,-2.70, -2.34, 7.66, 2.14, 1.55, 6.98, repro,
2008-01-08,-2.61, -1.73, 4.66, 2.21, 1.57, 7.18, repro,
2008-01-09,-2.40, -2.30, 2.23, 2.18, 1.56, 7.12, repro,
2008-01-10,-2.15, -1.57, 6.66, 2.11, 1.55, 6.91, repro,
2008-01-11,-2.31, -1.49, 4.73, 2.11, 1.55, 6.91, repro,
2008-01-12,-1.78, -1.48, -0.44, 2.13, 1.55, 6.95, repro,
2008-01-13,-1.59, -1.49, -5.31, 2.15, 1.56, 7.03, repro,
2008-01-14,-2.71, -1.55, -0.94, 2.14, 1.58, 7.06, repro,
2008-01-15,-1.87, -2.23, -0.07, 2.12, 1.56, 6.99, repro,
2008-01-16,-2.17, -1.87, -2.57, 2.15, 1.57, 7.06, repro,
2008-01-17,-2.15, -1.26, -1.40, 2.16, 1.56, 7.03, repro,
2008-01-18,-1.61, -1.87, -2.65, 2.15, 1.59, 7.13, repro,
2008-01-19,-1.51, -0.95, -4.40, 2.14, 1.57, 7.05, repro,
2008-01-20,-1.75, -1.15, 0.30, 2.12, 1.57, 7.00, repro,
2008-01-21,-1.89, -1.21, 1.35, 2.11, 1.56, 6.95, repro,
2008-01-22,-2.37, -1.19, -3.32, 2.11, 1.56, 6.92, repro,
2008-01-23,-2.00, -0.52, -2.06, 2.11, 1.54, 6.89, repro,
2008-01-24,-2.45, -0.61, 2.80, 2.14, 1.57, 7.07, repro,
2008-01-25,-2.23, -1.23, 1.31, 2.13, 1.58, 7.07, repro,
2008-01-26,-3.01, -1.27, 2.82, 2.11, 1.57, 6.98, repro,
2008-01-27,-4.44, -1.38, 5.47, 2.11, 1.55, 6.96, repro,
2008-01-28,-2.98, -1.93, 15.05, 2.11, 1.54, 6.89, repro,
2008-01-29,-2.92, -1.05, 9.44, 2.24, 1.67, 7.38, repro,
2008-01-30,-2.40, -1.40, 6.04, 2.23, 1.64, 7.33, repro,
2008-01-31,-2.38, -2.13, 1.09, 2.13, 1.57, 7.05, repro,
2008-02-01,-2.57, -0.73, 0.03, 2.11, 1.55, 6.96, repro,
2008-02-02,-2.18, -1.15, 0.51, 2.09, 1.54, 6.86, repro,
2008-02-03,-2.53, -0.67, 5.11, 2.12, 1.55, 6.96, repro,
2008-02-04,-1.74, -1.43, 0.87, 2.12, 1.56, 7.01, repro,
2008-02-05,-1.87, -1.02, -0.40, 2.16, 1.63, 7.19, repro,
2008-02-06,-2.80, -1.37, -0.78, 2.15, 1.62, 7.15, repro,
2008-02-07,-2.76, -0.80, 3.66, 2.14, 1.58, 7.08, repro,
2008-02-08,-3.55, -1.56, -1.10, 2.11, 1.55, 6.95, repro,
2008-02-09,-2.35, -0.42, -1.47, 2.12, 1.56, 6.99, repro,
2008-02-10,-2.71, -0.21, 0.32, 2.12, 1.56, 7.01, repro,
2008-02-11,-2.77, -1.34, -0.92, 2.12, 1.56, 7.02, repro,
2008-02-12,-2.60, -0.49, -2.65, 2.11, 1.55, 6.95, repro,
2008-02-13,-2.51, -1.89, 1.12, 2.12, 1.56, 6.98, repro,
2008-02-14,-1.45, -0.96, -1.62, 2.13, 1.55, 6.97, repro,
2008-02-15,-2.63, -0.47, -3.11, 2.14, 1.60, 7.11, repro,
2008-02-16,-3.27, -0.59, -0.46, 2.11, 1.56, 6.97, repro,
2008-02-17,-2.82, -0.44, -1.40, 2.12, 1.57, 7.03, repro,
2008-02-18,-2.72, -0.38, -2.59, 2.12, 1.56, 6.96, repro,
2008-02-19,-3.01, -1.07, -1.73, 2.13, 1.57, 7.00, repro,
2008-02-20,-2.43, -0.83, -2.72, 2.12, 1.56, 6.97, repro,
2008-02-21,-3.40, -1.01, 4.98, 2.11, 1.56, 6.94, repro,
2008-02-22,-3.25, -0.88, 4.68, 2.12, 1.57, 7.01, repro,
2008-02-23,-3.68, -0.34, 4.62, 2.11, 1.55, 6.91, repro,
2008-02-24,-2.07, -0.67, 2.70, 2.13, 1.57, 7.03, repro,
2008-02-25,-3.81, -0.88, 0.84, 2.12, 1.56, 6.96, repro,
2008-02-26,-2.88, -1.04, -13.22, 2.14, 1.56, 7.02, repro,
2008-02-27,-2.67, -1.12, -11.50, 2.15, 1.59, 7.08, repro,
2008-02-28,-2.88, -1.23, -5.81, 2.12, 1.57, 7.00, repro,
2008-02-29,-2.51, -0.82, -3.59, 2.14, 1.56, 7.02, repro,
2008-03-01,-4.31, -1.32, 0.59, 2.17, 1.62, 7.27, repro,
2008-03-02,-3.50, -0.44, -6.72, 2.12, 1.56, 6.97, repro,
2008-03-03,-3.00, -0.49, -9.89, 2.13, 1.55, 6.98, repro,
2008-03-04,-2.36, -0.46, -10.04, 2.11, 1.55, 6.94, repro,
2008-03-05,-2.25, -1.12, -7.97, 2.19, 1.67, 7.39, repro,
2008-03-06,-3.29, -0.71, -5.51, 2.13, 1.57, 7.01, repro,
2008-03-07,-3.54, -0.58, -6.54, 2.13, 1.56, 7.00, repro,
2008-03-08,-4.76, -0.36, -3.34, 2.17, 1.60, 7.21, repro,
2008-03-09,-2.72, -1.06, -6.09, 2.15, 1.59, 7.14, repro,
2008-03-10,-2.83, -0.14, -6.33, 2.11, 1.56, 6.97, repro,
2008-03-11,-2.67, -1.48, -1.19, 2.11, 1.56, 6.97, repro,
2008-03-12,-3.46, -1.49, -0.38, 2.17, 1.61, 7.27, repro,
2008-03-13,3.62, -3.54, 18.96, 17.95, 14.89, 50.27, repro,
2008-03-18,-26.35, 27.76, 18.47, 38.03, 57.86, 138.52, repro,
2008-03-20,-0.78, -1.01, 2.19, 4.01, 3.03, 13.54, repro,
2008-03-21,-1.62, 0.40, -6.62, 3.33, 2.47, 11.24, repro,
2008-03-22,-1.49, -0.74, -12.68, 2.21, 1.64, 7.39, repro,
2008-03-23,-3.78, -1.28, -7.46, 2.17, 1.60, 7.17, repro,
2008-03-24,-2.78, -0.60, -4.27, 2.15, 1.59, 7.13, repro,
2008-03-25,-3.41, -0.88, -2.19, 2.20, 1.62, 7.23, repro,
2008-03-26,-2.43, -0.35, -4.45, 2.17, 1.63, 7.22, repro,
2008-03-27,-1.98, -1.62, -4.96, 2.19, 1.62, 7.26, repro,
2008-03-28,-3.05, -0.79, -7.28, 2.18, 1.61, 7.18, repro,
2008-03-29,-3.01, 0.22, -1.64, 2.15, 1.57, 7.06, repro,
2008-03-30,-2.68, -1.13, -2.38, 2.14, 1.55, 7.02, repro,
2008-03-31,-2.01, -0.93, -5.91, 2.13, 1.55, 7.00, repro,
2008-04-01,-1.81, -0.24, -4.74, 2.14, 1.56, 7.04, repro,
2008-04-02,-1.89, -0.94, -3.95, 2.22, 1.58, 7.21, repro,
2008-04-03,-2.20, -0.83, -7.25, 2.17, 1.59, 7.18, repro,
2008-04-04,-3.12, -0.84, -6.13, 2.13, 1.55, 6.98, repro,
2008-04-05,-2.72, -0.97, 4.21, 2.13, 1.54, 7.00, repro,
2008-04-06,-2.79, -0.58, 1.75, 2.13, 1.56, 7.04, repro,
2008-04-07,-2.31, -0.53, -3.12, 2.15, 1.56, 7.09, repro,
2008-04-08,-3.08, -1.53, -4.19, 2.16, 1.57, 7.16, repro,
2008-04-09,-3.01, -1.33, 1.16, 2.16, 1.57, 7.15, repro,
2008-04-10,-2.48, -1.78, -4.28, 2.12, 1.54, 6.95, repro,
2008-04-11,-2.54, -1.47, -8.96, 2.22, 1.60, 7.29, repro,
2008-04-12,-2.44, -0.55, -10.92, 2.15, 1.56, 7.11, repro,
2008-04-13,-1.90, -0.64, -4.70, 2.16, 1.57, 7.14, repro,
2008-04-14,-3.88, -1.71, -5.20, 2.16, 1.57, 7.18, repro,
2008-04-15,-3.37, -2.14, 3.15, 2.17, 1.62, 7.20, repro,
2008-04-16,-3.25, -1.25, -3.21, 2.16, 1.60, 7.15, repro,
2008-04-17,-3.18, -1.12, -3.28, 2.15, 1.56, 7.11, repro,
2008-04-18,-2.30, -1.44, -1.46, 2.16, 1.56, 7.14, repro,
2008-04-19,-2.21, -0.62, -2.32, 2.17, 1.56, 7.15, repro,
2008-04-20,-3.10, -0.95, -2.98, 2.15, 1.55, 7.08, repro,
2008-04-21,-3.30, -0.95, -1.58, 2.15, 1.55, 7.10, repro,
2008-04-22,-2.92, -0.85, -3.70, 2.15, 1.55, 7.10, repro,
2008-04-23,-2.48, -1.21, -0.37, 2.23, 1.62, 7.40, repro,
2008-04-24,-2.58, -1.08, -3.33, 2.18, 1.58, 7.23, repro,
2008-04-25,-3.03, -0.66, -4.74, 2.17, 1.56, 7.15, repro,
2008-04-26,-2.36, -1.51, -11.06, 2.26, 1.63, 7.37, repro,
2008-04-27,-2.73, -1.11, -6.65, 2.26, 1.58, 7.28, repro,
2008-04-28,-4.14, -0.72, -6.32, 2.25, 1.58, 7.22, repro,
2008-04-29,-1.84, -0.41, -0.71, 2.31, 1.60, 7.34, repro,
2008-04-30,-2.26, -1.19, 0.59, 2.22, 1.60, 7.31, repro,
2008-05-01,-2.20, -0.98, -5.06, 2.21, 1.60, 7.23, repro,
2008-05-02,-2.88, -0.24, -5.96, 2.21, 1.61, 7.25, repro,
2008-05-03,-3.21, -0.73, -1.81, 2.16, 1.54, 7.04, repro,
2008-05-04,-3.33, -1.22, -0.96, 2.15, 1.54, 6.98, repro,
2008-05-05,-2.42, -0.96, -3.58, 2.21, 1.58, 7.17, repro,
2008-05-06,-2.73, -1.63, -3.60, 2.20, 1.59, 7.22, repro,
2008-05-07,-2.24, -0.49, -2.48, 2.23, 1.61, 7.31, repro,
2008-05-08,-1.83, -1.88, -2.06, 2.21, 1.62, 7.33, repro,
2008-05-09,-2.98, -1.23, -0.43, 2.18, 1.56, 7.13, repro,
2008-05-10,-3.07, -0.59, -0.56, 2.16, 1.54, 7.00, repro,
2008-05-11,-2.61, -2.48, -1.74, 2.20, 1.57, 7.19, repro,
2008-05-12,-3.04, -1.89, 2.13, 2.21, 1.59, 7.22, repro,
2008-05-13,-3.27, -1.23, 1.31, 2.18, 1.55, 7.06, repro,
2008-05-14,-3.11, -0.66, -4.04, 2.17, 1.54, 7.05, repro,
2008-05-15,-3.50, -0.47, -9.10, 2.18, 1.54, 7.05, repro,
2008-05-16,-2.58, -0.37, -5.66, 2.17, 1.53, 6.97, repro,
2008-05-17,-2.52, -1.71, -5.85, 2.20, 1.59, 7.25, repro,
2008-05-18,-2.35, -0.54, 0.17, 2.20, 1.58, 7.15, repro,
2008-05-19,-2.58, -1.30, -6.28, 2.15, 1.54, 7.06, repro,
2008-05-20,-3.10, -1.41, -0.39, 2.16, 1.54, 7.05, repro,
2008-05-21,-1.34, -2.70, 3.24, 2.20, 1.61, 7.25, repro,
2008-05-22,-3.33, -0.81, 3.26, 2.20, 1.59, 7.30, repro,
2008-05-23,-3.15, -1.69, 6.26, 2.18, 1.60, 7.28, repro,
2008-05-24,-4.63, -1.05, 1.20, 2.15, 1.55, 7.07, repro,
2008-05-25,-4.37, -1.28, 2.82, 2.16, 1.55, 7.12, repro,
2008-05-26,-4.00, -1.12, 4.80, 2.16, 1.57, 7.14, repro,
2008-05-27,-2.71, -0.04, 0.46, 2.16, 1.55, 7.08, repro,
2008-05-28,-1.74, -0.96, -0.49, 2.16, 1.56, 7.13, repro,
2008-05-29,-2.49, -1.30, 0.61, 2.19, 1.59, 7.17, repro,
2008-05-30,-2.08, -0.58, -4.40, 2.16, 1.54, 7.07, repro,
2008-05-31,-1.31, -0.26, -2.40, 2.16, 1.54, 7.06, repro,
2008-06-01,-3.45, 0.07, 1.09, 2.16, 1.55, 7.07, repro,
2008-06-02,-1.81, -0.44, -6.45, 2.16, 1.55, 7.10, repro,
2008-06-03,-3.21, -0.39, -1.74, 2.22, 1.61, 7.35, repro,
2008-06-04,-2.18, -0.40, 1.18, 2.15, 1.55, 7.07, repro,
2008-06-05,-2.74, 0.01, -1.01, 2.16, 1.54, 7.06, repro,
2008-06-06,-2.66, -0.01, 3.25, 2.19, 1.59, 7.23, repro,
2008-06-07,-3.66, -1.35, 2.77, 2.22, 1.63, 7.37, repro,
2008-06-08,-2.76, -0.63, -2.42, 2.21, 1.60, 7.25, repro,
2008-06-09,-3.56, -0.04, 1.35, 2.20, 1.61, 7.25, repro,
2008-06-10,-2.41, 0.40, -0.67, 2.16, 1.55, 7.08, repro,
2008-06-11,-1.59, -1.30, -2.54, 2.16, 1.54, 7.07, repro,
2008-06-12,-2.44, -0.01, 1.06, 2.18, 1.58, 7.23, repro,
2008-06-13,-1.95, -0.49, -2.09, 2.17, 1.57, 7.17, repro,
2008-06-14,-2.08, -0.19, -3.22, 2.22, 1.59, 7.30, repro,
2008-06-15,-1.51, -0.97, 0.31, 2.21, 1.58, 7.23, repro,
2008-06-16,-2.57, -0.42, -4.51, 2.16, 1.55, 7.09, repro,
2008-06-17,-2.18, -0.37, 0.19, 2.16, 1.54, 7.09, repro,
2008-06-18,-2.14, 0.01, -0.70, 2.16, 1.55, 7.10, repro,
2008-06-19,-1.47, -1.38, -6.04, 2.18, 1.62, 7.36, repro,
2008-06-20,-2.49, -0.29, -5.68, 2.14, 1.55, 7.05, repro,
2008-06-21,-1.71, 0.43, -9.11, 2.17, 1.54, 7.09, repro,
2008-06-22,-2.75, -0.45, -6.41, 2.16, 1.55, 7.08, repro,
2008-06-23,-1.81, -0.57, -0.31, 2.17, 1.55, 7.11, repro,
2008-06-24,-2.70, 0.25, 0.65, 2.15, 1.55, 7.05, repro,
2008-06-25,-3.08, -0.15, 1.14, 2.17, 1.56, 7.11, repro,
2008-06-26,-1.80, -1.56, 1.41, 2.18, 1.59, 7.15, repro,
2008-06-27,-2.70, -1.41, 0.06, 2.22, 1.60, 7.29, repro,
2008-06-28,0.65, 0.67, -6.27, 2.20, 1.61, 7.30, repro,
2008-06-29,-1.78, -0.74, -3.64, 2.16, 1.56, 7.07, repro,
2008-06-30,-1.92, -0.39, -2.13, 2.15, 1.57, 7.10, repro,
2008-07-01,-1.10, -2.15, -7.98, 2.15, 1.57, 7.07, repro,
2008-07-02,-2.18, -1.19, -4.42, 2.17, 1.55, 7.09, repro,
2008-07-03,-2.97, -0.51, 1.12, 2.21, 1.61, 7.30, repro,
2008-07-04,-2.08, -1.02, 6.47, 2.18, 1.55, 7.14, repro,
2008-07-05,-1.84, -0.54, 9.07, 2.16, 1.57, 7.15, repro,
2008-07-06,-2.15, -1.07, 2.99, 2.14, 1.55, 7.03, repro,
2008-07-07,-1.63, -1.20, 2.46, 2.19, 1.61, 7.24, repro,
2008-07-08,-2.34, -0.91, -0.56, 2.17, 1.54, 7.09, repro,
2008-07-09,-1.41, -0.80, 5.60, 2.18, 1.55, 7.11, repro,
2008-07-10,-1.72, -0.65, 2.02, 2.20, 1.58, 7.17, repro,
2008-07-11,-1.63, -1.28, 2.49, 2.22, 1.61, 7.29, repro,
2008-07-12,-1.27, -0.93, -0.35, 2.16, 1.55, 7.07, repro,
2008-07-13,-1.78, -1.09, 0.12, 2.23, 1.62, 7.38, repro,
2008-07-14,-2.35, -0.02, 3.22, 2.20, 1.56, 7.21, repro,
2008-07-15,-2.75, -1.94, 0.70, 2.29, 1.72, 7.66, repro,
2008-07-16,-2.60, -0.79, 2.02, 2.15, 1.56, 7.10, repro,
2008-07-17,-0.91, -1.11, 6.21, 2.14, 1.55, 7.02, repro,
2008-07-18,-1.49, -1.15, 6.22, 2.29, 1.61, 7.44, repro,
2008-07-19,-2.32, -0.53, 4.54, 2.28, 1.63, 7.49, repro,
2008-07-20,-2.18, -1.00, 6.40, 2.16, 1.54, 7.03, repro,
2008-07-21,-3.26, 0.08, 11.92, 2.16, 1.55, 7.03, repro,
2008-07-22,-2.79, -1.62, 9.46, 2.16, 1.57, 7.11, repro,
2008-07-23,-1.75, -0.84, 6.72, 2.19, 1.56, 7.15, repro,
2008-07-24,-1.70, -0.96, 1.40, 2.19, 1.56, 7.15, repro,
2008-07-25,-2.06, -1.26, 7.14, 2.21, 1.61, 7.30, repro,
2008-07-26,-2.46, -1.39, 5.58, 2.15, 1.54, 7.01, repro,
2008-07-27,-1.17, -0.97, 11.68, 2.14, 1.54, 7.01, repro,
2008-07-28,-2.86, -0.92, 7.61, 2.23, 1.59, 7.21, repro,
2008-07-29,-3.33, -0.81, 13.29, 2.23, 1.59, 7.37, repro,
2008-07-30,-2.42, -1.26, 10.15, 2.27, 1.63, 7.53, repro,
2008-07-31,-3.23, -1.14, 9.14, 2.16, 1.55, 7.12, repro,
2008-08-01,-2.49, -1.78, 18.65, 2.13, 1.53, 6.94, repro,
2008-08-02,-2.03, -1.45, 19.09, 2.15, 1.55, 7.04, repro,
2008-08-03,-2.57, -1.69, 7.84, 2.19, 1.59, 7.22, repro,
2008-08-04,-2.72, -0.86, 8.91, 2.16, 1.55, 7.11, repro,
2008-08-05,-2.20, -1.25, 4.97, 2.16, 1.55, 7.10, repro,
2008-08-06,-3.02, -0.84, 8.28, 2.19, 1.54, 7.05, repro,
2008-08-07,-2.40, -0.23, 15.83, 2.23, 1.61, 7.24, repro,
2008-08-08,-0.97, -0.23, 7.01, 2.26, 1.63, 7.34, repro,
2008-08-09,-3.57, -0.77, 7.79, 2.20, 1.56, 7.16, repro,
2008-08-10,-2.95, -1.57, 7.27, 2.21, 1.56, 7.18, repro,
2008-08-11,-2.55, -1.75, 5.13, 2.20, 1.57, 7.18, repro,
2008-08-12,-3.22, -0.88, 11.09, 2.20, 1.56, 7.12, repro,
2008-08-13,-2.79, -1.80, 14.00, 2.19, 1.56, 7.11, repro,
2008-08-14,-2.45, -1.46, 3.94, 2.21, 1.56, 7.17, repro,
2008-08-15,-2.28, -1.24, 4.26, 2.21, 1.57, 7.22, repro,
2008-08-16,-2.43, -1.05, 6.52, 2.23, 1.57, 7.26, repro,
2008-08-17,-3.13, -1.00, 13.01, 2.20, 1.56, 7.14, repro,
2008-08-18,-4.33, -1.70, 14.94, 2.38, 1.74, 7.93, repro,
2008-08-19,-3.60, -3.56, 15.57, 2.21, 1.57, 7.17, repro,
2008-08-20,-2.74, -1.14, 15.29, 2.20, 1.56, 7.11, repro,
2008-08-21,-2.82, -2.08, 12.92, 2.23, 1.57, 7.22, repro,
2008-08-22,-1.71, -2.23, 9.54, 2.20, 1.57, 7.15, repro,
2008-08-23,-1.82, -1.83, 9.05, 2.21, 1.56, 7.14, repro,
2008-08-24,-2.32, -2.44, 6.14, 2.21, 1.59, 7.22, repro,
2008-08-25,-2.63, -1.30, 12.08, 2.20, 1.56, 7.11, repro,
2008-08-26,-3.18, -1.51, 11.43, 2.22, 1.56, 7.15, repro,
2008-08-27,-2.59, -1.69, 12.40, 2.23, 1.59, 7.25, repro,
2008-08-28,-2.04, -1.65, 12.88, 2.37, 1.67, 7.57, repro,
2008-08-29,-2.18, -1.62, 8.79, 2.22, 1.59, 7.21, repro,
2008-08-30,-2.94, -1.94, 11.59, 2.22, 1.59, 7.21, repro,
2008-08-31,-2.83, -2.24, 15.31, 2.23, 1.59, 7.25, repro,
2008-09-01,-1.53, -2.43, 4.44, 2.24, 1.58, 7.22, repro,
2008-09-02,-2.23, -1.61, 1.07, 2.23, 1.60, 7.26, repro,
2008-09-03,-1.41, -1.25, 4.46, 2.23, 1.59, 7.24, repro,
2008-09-04,-1.23, -1.85, 7.69, 2.35, 1.69, 7.71, repro,
2008-09-05,-3.33, -1.60, 5.36, 2.28, 1.62, 7.33, repro,